Location: Unspecified
(47.8330°N, 0.0000°E)
Time: 09:39:04
(UTC+00:00)

VELOX 1 - Pass Details

Date: 29 August 2019
Orbit: 629 x 643 km, 98.2° (Epoch: 18 September)

Event Time Altitude Azimuth Distance (km) Brightness Sun altitude
Exits shadow 01:23:48 33° 342° (NNW) 1,066 ? -29.8°
Drops below altitude 10° 01:26:16 10° 345° (NNW) 2,027 ? -29.6°
Sets 01:28:29 0° 346° (NNW) 2,942 ? -29.5°
